Location: Home
(51.5204°N, 2.5456°W)
Time: 11:20:20
(UTC+00:00)

STRAND 1 - Pass Details

Date: 08 December 2019
Orbit: 768 x 781 km, 98.5° (Epoch: 17 January)

Event Time Altitude Azimuth Distance (km) Brightness Sun altitude
Rises 05:09:17 0° 120° (ESE) 3,253 ? -25.6°
Reaches altitude 10° 05:12:02 10° 106° (ESE) 2,327 ? -25.2°
Maximum altitude 05:15:54 22° 57° (ENE) 1,643 ? -24.6°
Drops below altitude 10° 05:19:46 10° 8° (N) 2,331 ? -24.0°
Enters shadow 05:22:20 - 354° (N) 3,189 ? -23.6°
